GW4269 Weather Reports


time (UTC)temp
C
wind
direction
speed
KPH
gust
KPH
rain 1hr
cm
rain 24hr
cm
rain mn
cm
humidity
%
barometer
mb
20260503201455 20 248 19.3 29.0 0.00 0.00 0.00 48 1004.4
20260503200956 20 269 19.3 27.4 0.00 0.00 0.00 47 1004.4
20260503200456 19 256 25.7 27.4 0.00 0.00 0.00 53 1004.4
20260503195955 18 252 20.9 32.2 0.00 0.00 0.00 54 1004.4
20260503195455 19 251 22.5 32.2 0.00 0.00 0.00 50 1004.4
20260503194955 20 249 16.1 27.4 0.00 0.00 0.00 48 1004.4
20260503194456 19 255 19.3 25.7 0.00 0.00 0.00 52 1004.4
20260503193955 20 261 19.3 25.7 0.00 0.00 0.00 54 1004.4
20260503193455 20 243 16.1 29.0 0.00 0.00 0.00 51 1004.4
20260503192955 20 280 22.5 27.4 0.00 0.00 0.00 55 1004.7
20260503192455 19 274 14.5 27.4 0.00 0.00 0.00 52 1004.7
20260503191955 19 261 17.7 25.7 0.00 0.00 0.00 55 1004.7
20260503191455 19 264 20.9 33.8 0.00 0.00 0.00 54 1004.7
20260503190956 19 260 17.7 27.4 0.00 0.00 0.00 57 1004.7
20260503190455 17 226 20.9 27.4 0.00 0.00 0.00 57 1004.7
20260503185956 18 212 16.1 29.0 0.00 0.00 0.00 57 1004.7
20260503185455 18 251 22.5 29.0 0.00 0.00 0.00 56 1004.7
20260503184955 18 250 19.3 25.7 0.00 0.00 0.00 55 1005.1
20260503184457 18 217 20.9 29.0 0.00 0.00 0.00 51 1005.1
20260503183955 18 223 24.1 29.0 0.00 0.00 0.00 55 1005.1
20260503183455 18 210 19.3 25.7 0.00 0.00 0.00 55 1005.1
20260503182956 18 211 17.7 25.7 0.00 0.00 0.00 52 1005.1
20260503182455 18 233 25.7 29.0 0.00 0.00 0.00 54 1005.1
20260503181955 18 243 19.3 30.6 0.00 0.00 0.00 54 1005.1
20260503181504 18 249 22.5 24.1 0.00 0.00 0.00 54 1005.4
20260503180955 18 223 17.7 25.7 0.00 0.00 0.00 56 1005.4
20260503180455 18 241 22.5 27.4 0.00 0.00 0.00 55 1005.4
20260503175955 18 220 19.3 27.4 0.00 0.00 0.00 58 1005.4
20260503175456 17 223 16.1 24.1 0.00 0.00 0.00 54 1005.4
20260503174955 18 221 17.7 24.1 0.00 0.00 0.00 54 1005.4
20260503174456 18 240 16.1 24.1 0.00 0.00 0.00 60 1005.4
20260503173956 18 243 20.9 27.4 0.00 0.00 0.00 56 1005.8
20260503173456 17 223 17.7 24.1 0.00 0.00 0.00 54 1005.8
20260503172955 17 260 19.3 24.1 0.00 0.00 0.00 54 1005.8
20260503172456 17 211 22.5 25.7 0.00 0.00 0.00 55 1005.8
20260503171955 17 236 17.7 25.7 0.00 0.00 0.00 54 1005.8
20260503171456 17 262 14.5 29.0 0.00 0.00 0.00 56 1005.8
20260503170956 17 237 14.5 24.1 0.00 0.00 0.00 59 1005.8
20260503170456 17 250 17.7 24.1 0.00 0.00 0.00 56 1005.8
20260503150955 14 206 24.1 29.0 0.00 0.00 0.00 65 1006.8
20260503150455 14 228 24.1 27.4 0.00 0.00 0.00 62 1006.8
20260503130955 11 187 19.3 22.5 0.00 0.00 0.00 74 1006.8
20260503130455 11 200 19.3 24.1 0.00 0.00 0.00 73 1006.8
20260503110455 7 195 14.5 16.1 0.00 0.00 0.00 79 1007.8
20260503090457 8 154 6.4 6.4 0.00 0.00 0.00 82 1008.8
20260503081455 8 174 11.3 12.9 0.00 0.00 0.00 85 1009.1
20260503080956 8 175 11.3 12.9 0.00 0.00 0.00 86 1009.1
20260503080455 9 184 6.4 9.7 0.00 0.00 0.00 84 1009.1
20260503072455 10 221 11.3 14.5 0.00 0.00 0.00 77 1009.5
20260503071955 10 222 12.9 20.9 0.00 0.00 0.00 75 1009.5
20260503071455 10 239 17.7 20.9 0.00 0.00 0.00 74 1009.8
20260503070955 10 227 14.5 19.3 0.00 0.00 0.00 75 1009.8
20260503070455 10 240 17.7 24.1 0.00 0.00 0.00 74 1010.2
20260503054956 8 188 6.4 11.3 0.00 0.00 0.00 76 1010.2
20260503054455 8 191 6.4 11.3 0.00 0.00 0.00 76 1010.2
20260503053955 8 198 9.7 14.5 0.00 0.00 0.00 72 1010.2
20260503053455 8 207 9.7 14.5 0.00 0.00 0.00 73 1010.5
20260503052955 8 193 9.7 12.9 0.00 0.00 0.00 77 1010.5
20260503052455 8 180 8.0 11.3 0.00 0.00 0.00 74 1010.5
20260503051955 8 175 9.7 11.3 0.00 0.00 0.00 76 1010.5
20260503051455 8 184 9.7 12.9 0.00 0.00 0.00 79 1010.5
20260503050956 7 178 9.7 11.3 0.00 0.00 0.00 78 1010.5
20260503050455 7 184 6.4 8.0 0.00 0.00 0.00 76 1010.5
20260503045955 7 217 6.4 9.7 0.00 0.00 0.00 75 1010.8
20260503045456 7 204 6.4 8.0 0.00 0.00 0.00 77 1010.8
20260503044955 7 167 6.4 9.7 0.00 0.00 0.00 79 1010.8
20260503044456 7 189 8.0 9.7 0.00 0.00 0.00 80 1010.8
20260503043955 7 181 6.4 9.7 0.00 0.00 0.00 79 1010.8
20260503043455 8 186 8.0 9.7 0.00 0.00 0.00 80 1011.2
20260503042955 8 187 9.7 12.9 0.00 0.00 0.00 74 1011.2
20260503042455 8 177 8.0 11.3 0.00 0.00 0.00 77 1011.2
20260503041955 8 188 8.0 12.9 0.00 0.00 0.00 73 1011.2
20260503041455 8 169 8.0 12.9 0.00 0.00 0.00 75 1011.2
20260503040955 8 187 9.7 11.3 0.00 0.00 0.00 73 1011.2
20260503040455 8 194 8.0 11.3 0.00 0.00 0.00 73 1011.2
20260503035955 8 187 11.3 11.3 0.00 0.00 0.00 73 1011.2
20260503035455 8 189 9.7 11.3 0.00 0.00 0.00 74 1011.2
20260503034955 7 166 9.7 11.3 0.00 0.00 0.00 75 1011.5
20260503034456 7 176 9.7 11.3 0.00 0.00 0.00 77 1011.5
20260503033955 7 187 9.7 11.3 0.00 0.00 0.00 81 1011.5
20260503033455 8 173 9.7 11.3 0.00 0.00 0.00 81 1011.5
20260503032956 8 175 9.7 11.3 0.00 0.00 0.00 81 1011.5
20260503032455 7 189 9.7 11.3 0.00 0.00 0.00 81 1011.9
20260503031956 8 174 4.8 8.0 0.00 0.00 0.00 80 1011.9
20260503031455 8 174 6.4 11.3 0.00 0.00 0.00 78 1011.9
20260503030955 8 188 9.7 11.3 0.00 0.00 0.00 75 1011.9
20260503030455 8 189 6.4 11.3 0.00 0.00 0.00 78 1011.9
20260503025955 8 176 9.7 11.3 0.00 0.00 0.00 79 1012.2
20260503025455 8 175 9.7 9.7 0.00 0.00 0.00 77 1012.2
20260503024956 8 172 9.7 9.7 0.00 0.00 0.00 78 1012.2
20260503024455 8 174 9.7 9.7 0.00 0.00 0.00 77 1012.2
20260503023955 8 170 6.4 8.0 0.00 0.00 0.00 80 1012.2
20260503023455 8 177 8.0 9.7 0.00 0.00 0.00 80 1012.2
20260503022955 9 182 6.4 9.7 0.00 0.00 0.00 80 1012.2
20260503022455 9 201 8.0 9.7 0.00 0.00 0.00 77 1012.2
20260503021955 9 183 8.0 9.7 0.00 0.00 0.00 78 1012.2
20260503021455 8 186 6.4 8.0 0.00 0.00 0.00 76 1012.2
20260503020955 9 211 6.4 6.4 0.00 0.00 0.00 79 1012.2
20260503020455 9 182 4.8 8.0 0.00 0.00 0.00 79 1012.5
20260503015955 9 180 6.4 8.0 0.00 0.00 0.00 75 1012.5
20260503015455 10 193 6.4 9.7 0.00 0.00 0.00 77 1012.5
20260503014955 10 187 8.0 9.7 0.00 0.00 0.00 74 1012.5
20260503014455 10 185 6.4 8.0 0.00 0.00 0.00 76 1012.5
20260503013956 9 178 6.4 8.0 0.00 0.00 0.00 76 1012.2
20260503013455 8 198 8.0 9.7 0.00 0.00 0.00 75 1012.5
20260503012955 9 162 4.8 4.8 0.00 0.00 0.00 79 1012.5
20260503012455 9 173 4.8 6.4 0.00 0.00 0.00 76 1012.5
20260503011956 10 171 6.4 9.7 0.00 0.00 0.00 74 1012.5
20260503011456 10 177 8.0 11.3 0.00 0.00 0.00 70 1012.5
20260503010955 10 181 9.7 11.3 0.00 0.00 0.00 66 1012.5
20260503010456 10 210 8.0 11.3 0.00 0.00 0.00 67 1012.5
20260503005955 10 209 9.7 12.9 0.00 0.00 0.00 68 1012.5
20260503005455 10 226 9.7 12.9 0.00 0.00 0.00 64 1012.5
20260503004956 11 231 11.3 12.9 0.00 0.00 0.00 64 1012.9
20260503004455 11 224 11.3 12.9 0.00 0.00 0.00 64 1012.9
20260503003956 11 235 12.9 14.5 0.00 0.00 0.00 62 1012.9
20260503003456 11 228 12.9 14.5 0.00 0.00 0.00 61 1012.9
20260503002955 11 235 14.5 16.1 0.00 0.00 0.00 59 1012.9
20260503002455 11 214 14.5 16.1 0.00 0.00 0.00 59 1012.9
20260503001955 12 226 12.9 17.7 0.00 0.00 0.00 57 1012.9
20260503001456 12 232 16.1 22.5 0.00 0.00 0.00 57 1012.9
20260503000955 12 241 20.9 24.1 0.00 0.00 0.00 55 1012.9
20260503000455 13 241 16.1 22.5 0.00 0.00 0.00 58 1013.2
20260502235955 13 238 17.7 20.9 0.00 0.00 0.00 50 1013.2
20260502235455 13 229 17.7 22.5 0.00 0.00 0.00 50 1013.2
20260502234958 13 241 17.7 25.7 0.00 0.00 0.00 55 1013.2
20260502234455 13 219 17.7 24.1 0.00 0.00 0.00 54 1013.2
20260502233956 13 232 16.1 25.7 0.00 0.00 0.00 53 1013.2
20260502233455 13 248 16.1 25.7 0.00 0.00 0.00 55 1013.2
20260502232956 13 245 17.7 24.1 0.00 0.00 0.00 54 1013.2
20260502232456 12 249 17.7 24.1 0.00 0.00 0.00 53 1013.2
20260502231955 13 235 19.3 25.7 0.00 0.00 0.00 52 1013.2
20260502231455 13 218 17.7 29.0 0.00 0.00 0.00 53 1013.2
20260502230955 13 236 24.1 29.0 0.00 0.00 0.00 51 1013.2
20260502230455 13 255 17.7 29.0 0.00 0.00 0.00 54 1013.2
20260502225955 13 246 12.9 22.5 0.00 0.00 0.00 52 1013.2
20260502225456 13 252 17.7 29.0 0.00 0.00 0.00 52 1013.2
20260502224955 14 243 20.9 29.0 0.00 0.00 0.00 47 1013.2
20260502224455 14 232 20.9 25.7 0.00 0.00 0.00 47 1013.2
20260502223956 13 250 17.7 25.7 0.00 0.00 0.00 49 1013.2
20260502223455 13 213 25.7 27.4 0.00 0.00 0.00 49 1013.2
20260502222955 14 233 24.1 29.0 0.00 0.00 0.00 46 1013.2
20260502222455 14 233 19.3 32.2 0.00 0.00 0.00 49 1013.2
20260502221955 14 229 17.7 27.4 0.00 0.00 0.00 50 1013.2
20260502221455 14 236 16.1 25.7 0.00 0.00 0.00 51 1013.2
20260502220956 14 275 17.7 24.1 0.00 0.00 0.00 50 1013.2
20260502220456 13 219 19.3 29.0 0.00 0.00 0.00 44 1013.2
20260502215955 14 215 22.5 27.4 0.00 0.00 0.00 47 1013.5
20260502215455 14 225 19.3 29.0 0.00 0.00 0.00 46 1013.5
20260502214956 14 225 25.7 29.0 0.00 0.00 0.00 50 1013.5
20260502214455 14 246 19.3 29.0 0.00 0.00 0.00 46 1013.5
20260502213956 14 218 22.5 29.0 0.00 0.00 0.00 46 1013.5
20260502212956 14 222 25.7 29.0 0.00 0.00 0.00 47 1013.5
20260502212456 14 251 25.7 29.0 0.00 0.00 0.00 47 1013.9
20260502211955 15 239 17.7 20.9 0.00 0.00 0.00 48 1013.9
20260502211455 15 236 14.5 17.7 0.00 0.00 0.00 42 1013.5
20260502210955 14 261 14.5 24.1 0.00 0.00 0.00 48 1013.9
20260502210455 14 240 17.7 29.0 0.00 0.00 0.00 44 1013.9
20260502205956 14 252 25.7 29.0 0.00 0.00 0.00 45 1013.9
20260502205456 14 241 20.9 29.0 0.00 0.00 0.00 47 1013.9
20260502204956 14 252 22.5 29.0 0.00 0.00 0.00 44 1014.2
20260502204455 13 262 20.9 27.4 0.00 0.00 0.00 44 1014.2
20260502203955 15 244 20.9 32.2 0.00 0.00 0.00 47 1014.2
20260502203455 15 253 16.1 20.9 0.00 0.00 0.00 44 1014.2
20260502202955 14 254 17.7 32.2 0.00 0.00 0.00 45 1014.2
20260502202456 15 257 27.4 32.2 0.00 0.00 0.00 46 1014.6
20260502201955 14 251 19.3 24.1 0.00 0.00 0.00 47 1014.6